Location: Unspecified
(38.7273°N, 77.0677°W)
Time: 19:44:45
(UTC-04:00)

ISS - Pass Details

Date: 28 June 2021
Orbit: 419 x 421 km, 51.6° (Epoch: 30 July)

Event Time Altitude Azimuth Distance (km) Brightness Sun altitude
Exits shadow 03:42:28 28° 140° (SE) 809 -2.5 -18.7°
Maximum altitude 03:42:39 29° 134° (SE) 804 -2.4 -18.6°
Drops below altitude 10° 03:45:36 10° 72° (ENE) 1,498 -0.2 -18.3°
Sets 03:47:52 0° 61° (ENE) 2,365 1.3 -18.0°
